This is the latest recevied weather packets stored in our database for station/object WA1OUI. If no packets are shown the sender has not sent any weather packets the latest 10 day(s).
| Time | Temp. | Humidity | Pressure | Rain* | Wind** | Luminosity | Snow |
|---|---|---|---|---|---|---|---|
| 1777686095 | 11.67° C | 64% | 1009.7 hPa | 0 mm | - | 0 W/m² | - |
| 1777685791 | 11.67° C | 64% | 1009.5 hPa | 0 mm | - | 0 W/m² | - |
| 1777685486 | 11.67° C | 63% | 1009.6 hPa | 0 mm | - | 0 W/m² | - |
| 1777685184 | 11.67° C | 63% | 1009.4 hPa | 0 mm | - | 0 W/m² | - |
| 1777684882 | 11.67° C | 64% | 1009.5 hPa | 0 mm | - | 0 W/m² | - |
| 1777684579 | 11.67° C | 64% | 1009.5 hPa | 0 mm | - | 0 W/m² | - |
| 1777684274 | 11.67° C | 67% | 1009.2 hPa | 0 mm | - | 0 W/m² | - |
| 1777683973 | 11.67° C | 66% | 1009.3 hPa | 0 mm | - | 0 W/m² | - |
| 1777683669 | 11.67° C | 63% | 1009.3 hPa | 0 mm | - | 0 W/m² | - |
| 1777683367 | 11.67° C | 60% | 1009.1 hPa | 0 mm | - | 0 W/m² | - |
| 1777683064 | 11.67° C | 57% | 1009.1 hPa | 0 mm | - | 0 W/m² | - |
| 1777682759 | 12.22° C | 59% | 1009.1 hPa | 0 mm | - | 0 W/m² | - |
| 1777682456 | 12.22° C | 57% | 1009.1 hPa | 0 mm | - | 0 W/m² | - |
| 1777682155 | 12.22° C | 57% | 1008.9 hPa | 0 mm | - | 0 W/m² | - |
| 1777681851 | 12.22° C | 56% | 1009 hPa | 0 mm | - | 0 W/m² | - |
| 1777681547 | 12.22° C | 55% | 1008.8 hPa | 0 mm | - | 0 W/m² | - |
| 1777681244 | 12.78° C | 53% | 1008.6 hPa | 0 mm | - | 0 W/m² | - |
| 1777680943 | 12.78° C | 54% | 1008.5 hPa | 0 mm | - | 0 W/m² | - |
| 1777680639 | 12.78° C | 53% | 1008.6 hPa | 0 mm | - | 0 W/m² | - |
| 1777680337 | 12.78° C | 52% | 1008.7 hPa | 0 mm | - | 0 W/m² | - |
| 1777680034 | 13.33° C | 52% | 1008.5 hPa | 0 mm | - | 0 W/m² | - |
| 1777679730 | 13.33° C | 52% | 1008.5 hPa | 0 mm | - | 1 W/m² | - |
| 1777679426 | 13.33° C | 53% | 1008.3 hPa | 0 mm | - | 1 W/m² | - |
| 1777679122 | 13.33° C | 54% | 1008.3 hPa | 0 mm | - | 1 W/m² | - |
| 1777678820 | 13.33° C | 51% | 1008.3 hPa | 0 mm | - | 2 W/m² | - |
* Rain latest hour (hover to see other rain measurements)
** Current wind speed in m/s (hover to see current wind gust speed)